Regional Weather Roundup
Issued by NWS

Home | Current Version | Previous Version | Text Only | Print | Product List | Glossary On
Versions: 1 2 3 4 5 6 7 8 9 10 11 12 13 14 15 16 17 18 19 20 21 22 23 24 25 26 27 28 29 30 31 32 33 34 35 36 37 38 39 40 41 42 43 44 45 46 47 48 49 50
000
ASUS43 KFSD 281210
RWRSD

WEATHER ROUNDUP FOR SOUTH DAKOTA
NATIONAL WEATHER SERVICE SIOUX FALLS SD
600 AM CST TUE FEB 28 2017

NOTE: "FAIR" INDICATES FEW OR NO CLOUDS BELOW 12,000 FEET WITH NO
SIGNIFICANT WEATHER AND/OR OBSTRUCTIONS TO VISIBILITY.


SDZ001>005-009-010-012>017-281300-
NORTHWEST AND NORTH CENTRAL SOUTH DAKOTA

CITY           SKY/WX    TMP DP  RH WIND       PRES   REMARKS
BUFFALO          N/A     20  17  88 NE13      29.62R WCI   7
FAITH            N/A     22  21  96 NE13      29.70R WCI  10
MOBRIDGE       CLOUDY    26  20  77 NE9       29.76R WCI  17
$$

SDZ012>016-024>037-041>051-057-063-072>074-281300-
SOUTHWEST AND SOUTH CENTRAL SOUTH DAKOTA

CITY           SKY/WX    TMP DP  RH WIND       PRES   REMARKS
RAPID CTY ARPT FOG       25  23  92 SE5       29.63F VSB 3/4 WCI  19
PIERRE         CLOUDY    26  23  88 NE6       29.74R WCI  19
CUSTER         CLEAR     16   8  71 W12       29.56S WCI   3
ELLSWORTH AFB  FOG       25  25 100 S6        29.62  VSB 3/8 WCI  18
PHILIP         CLOUDY    26  26 100 E8        29.73R FOG     WCI  18
PINE RIDGE     CLOUDY    26  22  84 CALM      29.68S
SPEARFISH      MOCLDY    21  19  93 CALM      29.63R
WINNER         CLOUDY    33  31  92 NE8       29.71S FOG     WCI  26
$$

SDZ004>011-016>023-039-040-281300-
NORTHEAST SOUTH DAKOTA

CITY           SKY/WX    TMP DP  RH WIND       PRES   REMARKS
ABERDEEN       CLOUDY    21  16  81 N18       29.79R WCI   6
WATERTOWN      CLOUDY    25  22  88 NE13      29.72R WCI  14
BROOKINGS      CLOUDY    31  28  89 NE10      29.68F WCI  22
SISSETON         N/A     23  21  92 N14       29.78S WCI  11
$$

SDZ017-020-022-023-036>040-048>070-281300-
SOUTHEAST SOUTH DAKOTA

CITY           SKY/WX    TMP DP  RH WIND       PRES   REMARKS
SIOUX FALLS    CLOUDY    33  30  88 NE13      29.67S WCI  24
HURON          CLOUDY    29  28  96 N12       29.75R WCI  19
CHAMBERLAIN    CLOUDY    32  30  93 N8        29.73S WCI  25
MITCHELL       CLOUDY    33  31  92 N12       29.70R WCI  24
YANKTON        CLOUDY    27  23  86 N9        29.64F WCI  17
$$

ABBREVIATIONS USED IN REMARKS
   TC - TEMPERATURE IN CELSIUS
  WCI - WIND CHILL INDEX
   HX - HEAT INDEX
  VSB - VISIBILITY




USA.gov is the U.S. government's official web portal to all federal, state and local government web resources and services.